Location: Buchberg
(46.9333°N, 15.8500°E)
Time: 03:44:37
(UTC+00:00)

Cosmos 405 Rocket - Pass Details

Date: 14 July 2020
Orbit: 489 x 555 km, 81.3° (Epoch: 11 August)

Event Time Altitude Azimuth Distance (km) Brightness Sun altitude
Exits shadow 00:52:39 34° 241° (WSW) 861 3.4 -17.1°
Maximum altitude 00:53:45 44° 285° (WNW) 714 3.2 -17.0°
Drops below altitude 10° 00:57:23 10° 359° (N) 1,723 6.3 -16.7°
Sets 00:59:34 0° 6° (N) 2,603 7.6 -16.5°
